Weather History for KZZV - May, 2013

Change the Weather History Date:

Sunday, May 5, 2013

  Actual Average Record
Temperature  
Mean Temperature 61 °F 58 °F  
Max Temperature 74 °F 69 °F 89 °F (1949)
Min Temperature 48 °F 46 °F 29 °F (1979)
Degree Days  
Heating Degree Days 4 8  
Month to date heating degree days 7 43  
Since 1 July heating degree days 5415 5400  
Cooling Degree Days 0 1  
Month to date cooling degree days 1 1  
Year to date cooling degree days 18 10  
Growing Degree Days 10 (Base 50)    
Moisture  
Dew Point 34 °F    
Average Humidity 46    
Maximum Humidity 71    
Minimum Humidity 20    
Precipitation  
Precipitation 0.00 in 0.13 in 1.03 in (2003)
Month to date precipitation 0.00 0.62  
Year to date precipitation 9.18 11.89  
Sea Level Pressure  
Sea Level Pressure 30.01 in    
Wind  
Wind Speed 8 mph (East)    
Max Wind Speed 17 mph    
Max Gust Speed 23 mph    
Visibility 10 miles    
Events      
T = Trace of Precipitation, MM = Missing Value Source: NWS Daily Summary

Daily Weather History Graph

Daily Weather History Graph

Search for Another Location

Airport or City:

Trip Planner

Search our weather history database for the weather conditions in past years. The results will help you decide how hot, cold, wet, or windy it might be!

Date:

Astronomy

May. 05, 2013 Rise Set
Actual Time 6:22 AM EDT 8:26 PM EDT
Civil Twilight 5:52 AM EDT 8:56 PM EDT
Nautical Twilight 5:16 AM EDT 9:32 PM EDT
Astronomical Twilight 4:37 AM EDT 10:12 PM EDT
Moon 3:52 AM EDT (5/5) 4:24 PM EDT (5/5)
Length of Visible Light 15h 03m
Length of Day
14h 03m
Waning Crescent, 18% of the Moon is Illuminated
May 5
Waning Crescent
May 9
New
May 18
First Quarter
May 25
Full
May 31
Last Quarter

Hourly Weather History & Observations

Time (EDT) Temp. Dew Point Humidity Pressure Visibility Wind Dir Wind Speed Gust Speed Precip Events Conditions
12:53 AM 59.0 °F 42.1 °F 53% 30.07 in 10.0 mi East 6.9 mph - N/A   Clear
1:53 AM 55.9 °F 41.0 °F 57% 30.06 in 10.0 mi ESE 4.6 mph - N/A   Clear
2:53 AM 52.0 °F 42.1 °F 69% 30.06 in 10.0 mi Calm Calm - N/A   Clear
3:53 AM 51.1 °F 41.0 °F 68% 30.06 in 10.0 mi East 4.6 mph - N/A   Clear
4:53 AM 51.1 °F 41.0 °F 68% 30.05 in 10.0 mi East 3.5 mph - N/A   Clear
5:53 AM 48.9 °F 39.9 °F 71% 30.05 in 10.0 mi East 4.6 mph - N/A   Clear
6:53 AM 48.9 °F 39.9 °F 71% 30.06 in 10.0 mi East 5.8 mph - N/A   Clear
7:53 AM 54.0 °F 39.9 °F 59% 30.05 in 10.0 mi ENE 6.9 mph - N/A   Clear
8:53 AM 57.0 °F 37.0 °F 47% 30.06 in 10.0 mi East 9.2 mph - N/A   Clear
9:53 AM 61.0 °F 34.0 °F 36% 30.05 in 10.0 mi East 9.2 mph 20.7 mph N/A   Clear
10:53 AM 64.0 °F 34.0 °F 33% 30.03 in 10.0 mi East 12.7 mph - N/A   Clear
11:53 AM 66.0 °F 33.1 °F 29% 30.02 in 10.0 mi ESE 13.8 mph - N/A   Clear
12:53 PM 69.1 °F 35.1 °F 29% 30.01 in 10.0 mi ESE 10.4 mph - N/A   Clear
2:53 PM 72.0 °F 33.1 °F 24% 29.98 in 10.0 mi East 9.2 mph 19.6 mph N/A   Clear
3:53 PM 73.9 °F 30.9 °F 21% 29.96 in 10.0 mi ENE 12.7 mph - N/A   Clear
4:53 PM 73.9 °F 30.0 °F 20% 29.95 in 10.0 mi East 8.1 mph - N/A   Clear
5:53 PM 72.0 °F 28.9 °F 20% 29.94 in 10.0 mi East 11.5 mph - N/A   Clear
6:53 PM 71.1 °F 28.0 °F 20% 29.94 in 10.0 mi East 8.1 mph - N/A   Clear
7:53 PM 69.1 °F 26.1 °F 20% 29.94 in 10.0 mi ENE 8.1 mph - N/A   Clear
8:53 PM 66.9 °F 24.1 °F 20% 29.95 in 10.0 mi East 8.1 mph - N/A   Clear
9:53 PM 64.9 °F 25.0 °F 22% 29.97 in 10.0 mi East 8.1 mph - N/A   Partly Cloudy
10:53 PM 64.0 °F 28.0 °F 26% 29.97 in 10.0 mi East 6.9 mph - N/A   Clear
11:53 PM 62.1 °F 32.0 °F 32% 29.97 in 10.0 mi East 5.8 mph - N/A   Clear